TimeCET,TemperatureF,Dew PointF,Humidity,Sea Level PressureIn,VisibilityMPH,Wind Direction,Wind SpeedMPH,Gust SpeedMPH,PrecipitationIn,Events,Conditions,WindDirDegrees,DateUTC
12:15 AM,28.4,26.6,93,29.80,5.0,NNW,20.1,-,N/A,,Mostly Cloudy,330,2013-01-24 23:15:00
12:45 AM,26.6,26.6,100,29.80,5.0,NNW,20.1,-,N/A,,Mostly Cloudy,330,2013-01-24 23:45:00
1:15 AM,26.6,24.8,93,29.80,3.7,North,17.9,-,N/A,,Overcast,350,2013-01-25 00:15:00
1:45 AM,26.6,23.0,86,29.80,3.7,North,15.7,26.8,N/A,,Unknown,350,2013-01-25 00:45:00
2:15 AM,26.6,23.0,86,29.83,3.7,North,11.2,-,N/A,,Unknown,350,2013-01-25 01:15:00
2:45 AM,26.6,23.0,86,29.83,3.7,North,15.7,-,N/A,,Unknown,350,2013-01-25 01:45:00
3:15 AM,24.8,23.0,93,29.83,3.7,North,11.2,-,N/A,,Unknown,360,2013-01-25 02:15:00
3:21 AM,24.8,23.0,93,29.83,3.1,North,11.2,-,N/A,,Mostly Cloudy,360,2013-01-25 02:21:00
3:45 AM,24.8,21.2,86,29.83,3.1,North,13.4,-,N/A,,Mostly Cloudy,350,2013-01-25 02:45:00
4:15 AM,24.8,21.2,86,29.86,2.5,NNW,11.2,-,N/A,,Mostly Cloudy,340,2013-01-25 03:15:00
4:45 AM,24.8,21.2,86,29.86,2.5,NNW,15.7,-,N/A,,Mostly Cloudy,340,2013-01-25 03:45:00
5:15 AM,24.8,21.2,86,29.86,2.5,NNW,15.7,-,N/A,,Mostly Cloudy,340,2013-01-25 04:15:00
5:45 AM,-9999,-9999,N/A,-9999,3.1,North,15.7,-,N/A,,Mostly Cloudy,350,2013-01-25 04:45:00
6:15 AM,24.8,19.4,80,29.86,2.5,North,17.9,-,N/A,,Mostly Cloudy,350,2013-01-25 05:15:00
6:45 AM,23.0,19.4,86,29.86,2.5,NNW,17.9,-,N/A,,Mostly Cloudy,340,2013-01-25 05:45:00
7:15 AM,23.0,19.4,86,29.86,2.5,NNW,17.9,-,N/A,,Mostly Cloudy,340,2013-01-25 06:15:00
7:45 AM,-9999,-9999,N/A,-9999,3.1,North,15.7,-,N/A,,Mostly Cloudy,350,2013-01-25 06:45:00
7:58 AM,-9999,-9999,N/A,-9999,3.1,North,15.7,-,N/A,,Mostly Cloudy,350,2013-01-25 06:58:00
8:15 AM,23.0,17.6,80,29.89,2.5,NNW,13.4,-,N/A,,Mostly Cloudy,340,2013-01-25 07:15:00
8:45 AM,-9999,-9999,N/A,-9999,3.1,North,13.4,24.6,N/A,,Unknown,350,2013-01-25 07:45:00
9:15 AM,23.0,17.6,80,29.92,2.5,North,11.2,-,N/A,,Mostly Cloudy,350,2013-01-25 08:15:00
9:35 AM,23.0,15.8,74,29.92,3.1,North,11.2,-,N/A,,Mostly Cloudy,350,2013-01-25 08:35:00
9:45 AM,23.0,17.6,80,29.92,3.1,North,11.2,22.4,N/A,,Mostly Cloudy,350,2013-01-25 08:45:00
10:15 AM,23.0,17.6,80,29.92,3.1,NNW,11.2,-,N/A,,Mostly Cloudy,340,2013-01-25 09:15:00
10:45 AM,24.8,17.6,74,29.95,3.1,NNW,11.2,-,N/A,,Mostly Cloudy,340,2013-01-25 09:45:00
11:15 AM,24.8,17.6,74,29.95,3.1,NNW,17.9,-,N/A,,Mostly Cloudy,340,2013-01-25 10:15:00
11:45 AM,-9999,-9999,N/A,-9999,3.1,NNW,15.7,-,N/A,,Unknown,330,2013-01-25 10:45:00
12:15 PM,24.8,17.6,74,29.92,3.7,NNW,11.2,22.4,N/A,,Unknown,340,2013-01-25 11:15:00
12:45 PM,24.8,17.6,74,29.92,3.7,NNW,13.4,24.6,N/A,,Unknown,340,2013-01-25 11:45:00
1:15 PM,24.8,17.6,74,29.92,3.7,NNW,17.9,-,N/A,,Mostly Cloudy,340,2013-01-25 12:15:00
1:45 PM,24.8,19.4,80,29.92,3.7,NNW,13.4,24.6,N/A,,Mostly Cloudy,340,2013-01-25 12:45:00
2:15 PM,24.8,19.4,80,29.92,3.7,NNW,11.2,22.4,N/A,,Mostly Cloudy,330,2013-01-25 13:15:00
2:45 PM,-9999,-9999,N/A,-9999,3.1,NNW,8.9,-,N/A,,Unknown,330,2013-01-25 13:45:00
3:09 PM,23.0,17.6,80,29.95,3.1,NNW,13.4,24.6,N/A,,Mostly Cloudy,340,2013-01-25 14:09:00
3:15 PM,23.0,17.6,80,29.95,3.1,NNW,11.2,22.4,N/A,,Mostly Cloudy,340,2013-01-25 14:15:00
3:45 PM,23.0,17.6,80,29.95,3.1,NNW,11.2,-,N/A,,Mostly Cloudy,340,2013-01-25 14:45:00
4:15 PM,23.0,15.8,74,29.95,3.1,NNW,11.2,-,N/A,,Mostly Cloudy,340,2013-01-25 15:15:00
4:45 PM,21.2,15.8,80,29.98,3.1,NNW,11.2,-,N/A,,Scattered Clouds,340,2013-01-25 15:45:00
5:15 PM,21.2,15.8,80,29.98,3.1,NNW,13.4,-,N/A,,Partly Cloudy,340,2013-01-25 16:15:00
5:45 PM,-9999,-9999,N/A,-9999,3.1,NNW,8.9,-,N/A,Fog,Mostly Cloudy,340,2013-01-25 16:45:00
6:15 PM,21.2,14.0,74,30.01,3.1,NNW,11.2,-,N/A,,Partly Cloudy,340,2013-01-25 17:15:00
6:45 PM,19.4,14.0,80,30.01,3.1,NNW,11.2,-,N/A,,Partly Cloudy,340,2013-01-25 17:45:00
7:15 PM,19.4,14.0,80,30.01,3.7,NNW,8.9,-,N/A,,Unknown,340,2013-01-25 18:15:00
7:45 PM,17.6,14.0,86,30.01,3.7,NNW,8.9,-,N/A,,Clear,340,2013-01-25 18:45:00
8:15 PM,17.6,14.0,86,30.01,3.7,NNW,8.9,-,N/A,,Clear,330,2013-01-25 19:15:00
8:45 PM,-9999,-9999,N/A,-9999,3.1,NNW,8.9,-,N/A,,Mostly Cloudy,340,2013-01-25 19:45:00
9:15 PM,17.6,12.2,79,30.01,5.0,NNW,8.9,-,N/A,,Clear,340,2013-01-25 20:15:00
9:45 PM,17.6,14.0,86,30.01,5.0,NNW,11.2,-,N/A,,Clear,340,2013-01-25 20:45:00
10:15 PM,17.6,14.0,86,30.01,5.0,NNW,13.4,-,N/A,,Clear,340,2013-01-25 21:15:00
10:45 PM,17.6,14.0,86,30.01,5.0,NNW,13.4,-,N/A,,Clear,340,2013-01-25 21:45:00
11:15 PM,17.6,14.0,86,30.01,5.0,North,11.2,-,N/A,,Clear,350,2013-01-25 22:15:00
11:45 PM,-9999,-9999,N/A,-9999,3.1,North,-9999.0,-,N/A,,Mostly Cloudy,0,2013-01-25 22:45:00